Regional Weather Roundup
Issued by NWS Charleston, SC

Current Version | Previous Version | Text Only | Print | Product List | Glossary Off
Versions: 1 2 3 4 5 6 7 8 9 10 11 12 13 14 15 16 17 18 19 20 21 22 23 24 25 26 27 28 29 30 31 32 33 34 35 36 37 38 39 40 41 42 43 44 45 46 47 48 49 50
703 ASUS42 KCHS 161427 RWRCHS REGIONAL WEATHER ROUNDUP NATIONAL WEATHER SERVICE CHARLESTON SC 900 AM EST MON JAN 16 2017 NOTE: "FAIR" INDICATES FEW OR NO CLOUDS BELOW 12,000 FEET WITH NO SIGNIFICANT WEATHER AND/OR OBSTRUCTIONS TO VISIBILITY. NOT ALL STATIONS ARE QUALITY CONTROLLED. USE DATA WITH CAUTION... ESPECIALLY DEWPOINT OBSERVATIONS. SCZ027-030-031-034>040-042>050-161500- ...SOUTHEAST SOUTH CAROLINA... CITY SKY/WX TMP DP RH WIND PRES REMARKS N CHARLESTON FOG 57 56 96 NE7 30.34R VSB 1/4 WATERFRONT PRK N/A 56 56 100 N6 30.34R MOUNT PLEASANT LGT RAIN 57 57 100 CALM 30.36R VSB 1/2 JOHNS ISLAND FOG 59 59 100 N5 30.35R VSB<1/4 PINOPOLIS NOT AVBL MONCKS CORNER LGT RAIN 54 54 100 NE7 30.37R VSB 1/4 SUMMERVILLE FOG N/A N/A N/A N5 30.37R VSB 1/4 BEAUFORT MCAS CLOUDY 56 55 97 NE3 30.35R BEAUFORT ARPT CLOUDY 55 54 94 NE7 30.35R FOG HILTON HEAD IS PTSUNNY 59 59 100 NE3 30.34R WALTERBORO FOG 57 N/A N/A CALM 30.36R VSB 3/4 ALLENDALE CLOUDY 55 55 100 CALM 30.34R ...SOUTHERN MIDLANDS AND PEE DEE... CITY SKY/WX TMP DP RH WIND PRES REMARKS GEORGETOWN FOG 52 52 100 NE6 30.39R VSB 3/4 KINGSTREE FOG 52 52 100 N3 30.39R VSB 1/2 ORANGEBURG FOG 54 54 100 NE5 30.36R VSB 1/4 BARNWELL CLOUDY 55 55 100 CALM 30.35R FOG AIKEN FOG 50 50 100 NE6 30.38S VSB<1/4 MANNING FOG 54 54 100 CALM 30.38R VSB 1 COLUMBIA CLOUDY 56 55 97 NE5 30.35R FOG SUMTER FOG 54 54 100 NE8 30.36R VSB 1/2 FLORENCE FOG 50 50 100 E8 30.39R VSB 1/2 MYRTLE BEACH FOG 52 46 82 NE8 30.40R VSB 1/2 N MYRTLE BEACH CLOUDY 51 49 92 NE8 30.39R $$ GAZ063-065-086>088-099>101-113>116-118-119-134>141-150-161500- ...SOUTHEAST GEORGIA... CITY SKY/WX TMP DP RH WIND PRES REMARKS SAVANNAH ARPT CLOUDY 58 55 90 N3 30.34R HUNTER AAF CLOUDY 58 58 100 NE3 30.31R FORT STEWART CLOUDY 57 55 93 CALM 30.31R STATESBORO MOSUNNY 61 60 94 CALM 30.34R SYLVANIA PTSUNNY N/A N/A N/A CALM 30.35R FOG CLAXTON FAIR N/A N/A N/A CALM 30.34R ...CSRA...CENTRAL AND FAR SOUTHEAST GEORGIA... CITY SKY/WX TMP DP RH WIND PRES REMARKS THOMSON CLOUDY 53 53 100 CALM 30.39R AUGUSTA-BUSH MOSUNNY 52 49 89 NE3 30.33R FOG AUGUSTA-DANIEL MOSUNNY 57 52 83 E6 30.34R SWAINSBORO PTSUNNY 63 59 88 MISG 30.33R VIDALIA SUNNY 61 61 100 CALM 30.32R EASTMAN CLOUDY 62 60 93 CALM 30.34R HAZLEHURST FAIR 65 63 94 CALM 30.30S ALMA MOSUNNY 57 57 100 CALM 30.30S WAYCROSS SUNNY 62 62 100 CALM 30.32R JESUP FAIR 61 57 88 E3 30.33R BAXLEY FAIR 63 63 100 CALM 30.31S BRUNSWICK MOSUNNY 64 63 94 E5 30.33R SAINT SIMONS MOSUNNY 64 61 90 CALM 30.31R $$ SCZ027-028-034-036>038-045-046-048>050-GAZ119-141-161500- ...LAKE AND SUPPLEMENTAL COASTAL OBSERVATIONS... STATION/POSITION TIME TEMP WIND PRES WAVE SWELL AIR SEA DIR/SP/G HT/PER HT/PER/DIR (UTC) (F) (DEG/KT/KT) (MB) (FT/S) (FT/S/D) WINYAH BAY 1345 52 40/ 8 1028.0R LAKE MURRAY 1330 55 40/ 3/ 6 1027.1R ACE BASIN NERRS 1345 54 20/ 2 1027.0S FORT PULASKI 1400 56 55 90/ 6/ 7 1027.4 SAPELO ISLAND 1400 62 360/ 3 1026.0 $$ ANZ835-935-AMZ111-154-330-350-352-354-370-450-454-472-161500- ...C-MAN AND BUOY OBSERVATIONS... STATION/POSITION TIME TEMP WIND PRES WAVE SWELL AIR SEA DIR/SP/G HT/PER HT/PER/DIR (UTC) (F) (DEG/KT/KT) (MB) (FT/S) (FT/S/D) BUOY 41004 1350 70 71 50/ 8/ 10 1026.2R 3/10 3/120/10 BUOY 41008 1350 62 60 60/ 6/ 6 1025.9R 3/10 3/110/10 FOLLY BEACH CMAN 1400 55 30/ 9/ 10 1027.9R CAPERS NEARSHORE 1308 53 53 40/ 12/ 16 1027.1R FRIPP NEARSHORE 1408 56 56 40/ 12/ 16 1027.1R STATION/POSITION TIME TEMP WIND PRES WAVE SWELL AIR SEA DIR/SP/G HT/PER HT/PER/DIR (UTC) (F) (DEG/KT/KT) (MB) (FT/S) (FT/S/D) 5E ST. MARYS GA 1400 61 N/A 3/11 2/100/11 FRYING PAN BUOY 1410 63 71 20/ 14/ 17 1028.3 BUOY 41025 1350 55 73 20/ 17/ 21 1029.1R 5/ 5 2/ 90/10 CAPE LOOKOUT NC 1400 48 20/ 14/ 16 1029.3R BUOY 41002 1350 69 71 70/ 4/ 6 1027.5R 4/ 9 3/ 40/ 9 BUOY 41010 NOT AVBL ST AUGUSTINE FL 1400 66 64 350/ 2/ 2 1026.8R $$

USA.gov is the U.S. government's official web portal to all federal, state and local government web resources and services.